Location: La Trinit�
(48.1620°N, 3.4512°W)
Time: 14:51:44
(UTC+00:00)

USA 186 - Pass Details

Date: 08 May 2021
Orbit: 266 x 447 km, 96.9° (Epoch: 20 June)

Event Time Altitude Azimuth Distance (km) Brightness Sun altitude
Rises 18:46:15 0° 126° (SE) 2,069 4.7 7.0°
Reaches altitude 10° 18:48:59 10° 93° (E) 1,199 3.5 6.6°
Drops below altitude 10° 18:51:07 10° 43° (NE) 1,173 3.8 6.2°
Enters shadow 19:44:29 -71° 170° (S) 12,491 9.1 -1.9°
Maximum altitude 20:20:56 23° 263° (W) 721 3.6 -7.0°
